Location: Utrecht
(52.0907°N, 5.1214°E)
Time: 17:11:14
(UTC+02:00)

DIWATA 2B (PO-101) - Pass Details

Date: 08 July 2022
Orbit: 583 x 599 km, 98.0° (Epoch: 07 August)

Event Time Altitude Azimuth Distance (km) Brightness Sun altitude
Rises 01:26:33 0° 101° (ESE) 2,846 ? -15.3°
Reaches altitude 10° 01:30:44 10° 61° (ENE) 1,948 ? -15.3°
Maximum altitude 01:31:23 10° 51° (NE) 1,927 ? -15.4°
Drops below altitude 10° 01:32:03 10° 42° (NE) 1,949 ? -15.4°
Sets 01:36:14 0° 2° (N) 2,856 ? -15.4°
